Chambery, France

11:40 PM CET on February 07, 2016 (GMT +0100)
Aix-les-Bains

Weather History for LFLB - December, 2013

Change the Weather History Date:

Tuesday, December 17, 2013

  Actual Average Record
Temperature  
Mean Temperature 32 °F -  
Max Temperature 43 °F 40 °F 55 °F (1997)
Min Temperature 21 °F 30 °F 21 °F (2013)
Degree Days  
Heating Degree Days 33    
Moisture  
Dew Point 28 °F    
Average Humidity 89    
Maximum Humidity 100    
Minimum Humidity 57    
Precipitation  
Precipitation 0.00 in - - ()
Sea Level Pressure  
Sea Level Pressure 30.42 in    
Wind  
Wind Speed 2 mph ()    
Max Wind Speed 5 mph    
Max Gust Speed -    
Visibility 2.9 miles    
Events Fog    
Averages and records for this station are not official NWS values.
T = Trace of Precipitation, MM = Missing Value Source: Averaged Metar Reports

Daily Weather History Graph

Daily Weather History Graph

Search for Another Location

Airport or City:

Trip Planner

Search our weather history database for the weather conditions in past years. The results will help you decide how hot, cold, wet, or windy it might be!

Date:

Astronomy

Dec. 17, 2013 Rise Set
Actual Time 8:11 AM CET 4:53 PM CET
Civil Twilight 7:37 AM CET 5:27 PM CET
Nautical Twilight 6:59 AM CET 6:05 PM CET
Astronomical Twilight 6:23 AM CET 6:41 PM CET
Moon 5:23 PM CET (12/17) 7:52 AM CET (12/17)
Length of Visible Light 9h 50m
Length of Day
8h 41m
Full, 100% of the Moon is Illuminated
Dec 17
Full
Dec 25
Last Quarter
Jan 1
New
Jan 8
First Quarter
Jan 16
Full

Hourly Weather History & Observations

Time (CET) Temp. Windchill Dew Point Humidity Pressure Visibility Wind Dir Wind Speed Gust Speed Precip Events Conditions
12:00 AM 26 °F - 25 °F 95% 30.54 in 2 mi South 1.2 mph - -   Mist
12:00 AM 26.6 °F - 24.8 °F 93% 30.48 in - Variable 1.2 mph - N/A   Mist
12:30 AM 24.8 °F - 24.8 °F 100% 30.48 in - Variable 2.3 mph - N/A   Mist
1:00 AM 25 °F - 24 °F 94% 30.53 in 2 mi South 3.5 mph - -   Mist
1:00 AM 24.8 °F 20.5 °F 24.8 °F 100% 30.45 in - Variable 3.5 mph - N/A   Mist
1:30 AM 24.8 °F - 23.0 °F 93% 30.45 in - SE 2.3 mph - N/A   Mist
2:00 AM 24.8 °F - 23.0 °F 93% 30.45 in 1.7 mi SSE 2.3 mph - N/A   Mist
2:30 AM 24.8 °F - 23.0 °F 93% 30.45 in 1.1 mi South 2.3 mph - N/A   Mist
3:00 AM 25 °F - 24 °F 94% 30.53 in 2 mi South 2.3 mph - -   Mist
3:00 AM 24.8 °F - 24.8 °F 100% 30.45 in 1.8 mi Variable 2.3 mph - N/A   Mist
3:30 AM 23.0 °F - 23.0 °F 100% 30.45 in - South 2.3 mph - N/A   Mist
4:00 AM 24 °F - 24 °F 97% 30.53 in 1 mi South 1.2 mph - -   Mist
4:00 AM 24.8 °F - 23.0 °F 93% 30.45 in 1.4 mi South 1.2 mph - N/A   Mist
4:30 AM 23.0 °F 18.4 °F 21.2 °F 93% 30.45 in - SSE 3.5 mph - N/A   Mist
5:00 AM 24 °F - 22 °F 91% 30.52 in 2 mi ESE 1.2 mph - -   Mist
5:00 AM 23.0 °F - 23.0 °F 100% 30.45 in - ESE 1.2 mph - N/A   Mist
5:30 AM 23.0 °F - 21.2 °F 93% 30.45 in 3.1 mi Variable 2.3 mph - N/A   Mist
6:00 AM 24 °F - 22 °F 90% 30.52 in 4 mi Calm Calm - -   Scattered Clouds
6:00 AM 23.0 °F - 23.0 °F 100% 30.45 in 4.3 mi Calm Calm - N/A   Scattered Clouds
6:30 AM 23.0 °F 18.4 °F 21.2 °F 93% 30.45 in 4.3 mi South 3.5 mph - N/A   Scattered Clouds
7:00 AM 23 °F - 22 °F 96% 30.52 in 0 mi Calm Calm - - Fog Heavy Fog
7:00 AM 23.0 °F - 21.2 °F 93% 30.45 in 0.1 mi South 1.2 mph - N/A Fog Light Freezing Fog
7:30 AM 24.8 °F 20.5 °F 23.0 °F 93% 30.45 in 0.1 mi SSE 3.5 mph - N/A Fog Light Freezing Fog
8:00 AM 25 °F - 24 °F 94% 30.52 in 0 mi South 1.2 mph - - Fog Heavy Fog
8:00 AM 24.8 °F - 24.8 °F 100% 30.45 in 0.2 mi SSE 1.2 mph - N/A Fog Light Freezing Fog
8:30 AM 24.8 °F - 24.8 °F 100% 30.45 in 0.2 mi ESE 1.2 mph - N/A Fog Light Freezing Fog
9:00 AM 25 °F - 24 °F 94% 30.52 in 0 mi Calm Calm - - Fog Fog
9:00 AM 24.8 °F - 24.8 °F 100% 30.45 in 0.4 mi Calm Calm - N/A Fog Light Freezing Fog
9:30 AM 26.6 °F - 26.6 °F 100% 30.45 in 1.2 mi Calm Calm - N/A   Mist
10:00 AM 30 °F - 29 °F 94% 30.51 in 2 mi South 2.3 mph - -   Mist
10:00 AM 28.4 °F - 28.4 °F 100% 30.45 in 2.5 mi Calm Calm - N/A   Mist
11:00 AM 36 °F - 33 °F 87% 30.49 in 3 mi Calm Calm - -   Clear
11:00 AM 35.6 °F - 33.8 °F 93% 30.45 in 3.1 mi Calm Calm - N/A   Unknown
11:30 AM 35.6 °F 32.8 °F 32.0 °F 87% 30.45 in 5.0 mi NNE 3.5 mph - N/A   Unknown
12:00 PM 37 °F - 32 °F 75% 30.47 in 6 mi NNE 2.3 mph - -  
12:00 PM 37.4 °F - 32.0 °F 81% 30.42 in 5.6 mi Variable 2.3 mph - N/A   Unknown
12:35 PM 41.0 °F - 32.0 °F 70% 30.39 in 5.6 mi Variable 2.3 mph - N/A   Unknown
1:00 PM 42 °F - 32 °F 57% 30.42 in 6 mi Calm Calm - -   Partly Cloudy
1:00 PM 42.8 °F - 32.0 °F 66% 30.39 in 5.6 mi Calm Calm - N/A   Unknown
1:30 PM 42.8 °F 41.1 °F 32.0 °F 66% 30.36 in 5.6 mi North 3.5 mph - N/A   Unknown
2:00 PM 42 °F - 35 °F 68% 30.40 in 6 mi North 4.6 mph - -  
2:00 PM 42.8 °F 40.1 °F 33.8 °F 70% 30.36 in 5.6 mi North 4.6 mph - N/A   Unknown
2:30 PM 41.0 °F 38.0 °F 35.6 °F 81% 30.36 in 5.6 mi North 4.6 mph - N/A   Unknown
3:00 PM 43 °F - 35 °F 63% 30.37 in 6 mi NNE 1.2 mph - -  
3:00 PM 42.8 °F - 33.8 °F 70% 30.33 in 5.6 mi Variable 2.3 mph - N/A   Unknown
3:30 PM 42.8 °F - 33.8 °F 70% 30.33 in 5.6 mi Variable 2.3 mph - N/A   Unknown
4:00 PM 40 °F - 34 °F 72% 30.38 in 6 mi North 3.5 mph - -  
4:00 PM 41.0 °F 39.0 °F 33.8 °F 76% 30.33 in 5.6 mi North 3.5 mph - N/A   Unknown
4:30 PM 37.4 °F - 32.0 °F 81% 30.33 in - Calm Calm - N/A   Clear
5:00 PM 34 °F - 30 °F 80% 30.38 in 6 mi South 2.3 mph - -   Clear
5:00 PM 35.6 °F - 32.0 °F 87% 30.33 in - SSW 2.3 mph - N/A   Clear
5:30 PM 33.8 °F 30.8 °F 32.0 °F 93% 30.33 in - Variable 3.5 mph - N/A   Clear
6:00 PM 32 °F - 30 °F 88% 30.38 in 6 mi West 1.2 mph - -   Clear
6:00 PM 32.0 °F - 30.2 °F 93% 30.33 in - Calm Calm - N/A   Clear
6:30 PM 30.2 °F - 28.4 °F 93% 30.33 in 1.7 mi SSE 1.2 mph - N/A   Mist
7:00 PM 31 °F - 29 °F 88% 30.41 in 2 mi West 1.2 mph - -   Mist
7:00 PM 30.2 °F - 28.4 °F 93% 30.36 in - West 1.2 mph - N/A   Mist
7:30 PM 30.2 °F - 28.4 °F 93% 30.36 in - Variable 2.3 mph - N/A   Mist
8:00 PM 29 °F - 28 °F 93% 30.42 in 2 mi ESE 1.2 mph - -   Mist
8:00 PM 28.4 °F - 28.4 °F 100% 30.36 in 1.6 mi ESE 1.2 mph - N/A   Mist
8:30 PM 28.4 °F - 28.4 °F 100% 30.36 in - Calm Calm - N/A   Mist
9:00 PM 28 °F - 26 °F 88% 30.41 in 2 mi SW 1.2 mph - -   Mist
9:00 PM 28.4 °F - 26.6 °F 93% 30.36 in 1.8 mi Variable 1.2 mph - N/A   Mist
9:30 PM 28.4 °F - 26.6 °F 93% 30.36 in 1.1 mi South 2.3 mph - N/A   Mist
10:00 PM 27 °F - 26 °F 94% 30.43 in 1 mi ESE 1.2 mph - -   Mist
10:00 PM 26.6 °F - 26.6 °F 100% 30.36 in 1.2 mi Variable 1.2 mph - N/A   Mist
10:30 PM 26.6 °F - 26.6 °F 100% 30.36 in 1.9 mi Variable 1.2 mph - N/A   Mist
11:00 PM 28 °F - 26 °F 91% 30.44 in 2 mi South 3.5 mph - -   Mist
11:00 PM 28.4 °F 24.6 °F 26.6 °F 93% 30.39 in - South 3.5 mph - N/A   Mist
11:30 PM 28.4 °F - 26.6 °F 93% 30.39 in 1.1 mi ESE 1.2 mph - N/A   Mist